Sterling, IL

8:28 AM CST on November 18, 2019 (GMT -0600)
Whiteside County-Bittorf

Weather History for KSQI - September, 2019

Change the Weather History Date:

Monday, September 2, 2019

  Actual Average Record
Temperature  
Mean Temperature 70 °F -  
Max Temperature 82 °F 78 °F 93 °F (2000)
Min Temperature 57 °F 55 °F 42 °F (2017)
Cooling Degree Days 4    
Growing Degree Days 20 (Base 50)    
Moisture  
Dew Point 64 °F    
Average Humidity 89    
Maximum Humidity 100    
Minimum Humidity 62    
Precipitation  
Precipitation 0.00 in - - ()
Sea Level Pressure  
Sea Level Pressure 29.87 in    
Wind  
Wind Speed 1 mph ()    
Max Wind Speed 6 mph    
Max Gust Speed -    
Visibility 6.0 miles    
Events      
Averages and records for this station are not official NWS values.
T = Trace of Precipitation, MM = Missing Value Source: Averaged Metar Reports

Daily Weather History Graph

Daily Weather History Graph

Search for Another Location

Airport or City:

Astronomy

Sep. 02, 2019 Rise Set
Actual Time 6:25 AM CDT 7:30 PM CDT
Civil Twilight 5:56 AM CDT 7:59 PM CDT
Nautical Twilight 5:22 AM CDT 8:33 PM CDT
Astronomical Twilight 4:47 AM CDT 9:08 PM CDT
Moon 10:10 AM CDT (9/2) 9:48 PM CDT (9/2)
Length of Visible Light 14h 02m
Length of Day
13h 05m
Waxing Crescent, 15% of the Moon is Illuminated
Sep 2
Waxing Crescent
Sep 5
First Quarter
Sep 13
Full
Sep 21
Last Quarter
Sep 28
New

Hourly Weather History & Observations

Time (CDT) Temp. Heat Index Dew Point Humidity Pressure Visibility Wind Dir Wind Speed Gust Speed Precip Events Conditions
12:29 AM 62.6 °F - 60.8 °F 94% 30.11 in 1.8 mi Calm Calm - N/A   Clear
12:43 AM 62.6 °F - 62.6 °F 100% 30.11 in 3.0 mi Calm Calm - N/A   Clear
12:56 AM 62.1 °F - 62.1 °F 100% 29.70 in 3.0 mi Calm Calm - N/A   Clear
1:12 AM 60.8 °F - 60.8 °F 100% 30.10 in 2.0 mi Calm Calm - N/A   Clear
1:23 AM 60.8 °F - 60.8 °F 100% 30.11 in 4.0 mi Calm Calm - N/A   Clear
1:56 AM 62.1 °F - 62.1 °F 100% 29.71 in 5.0 mi Calm Calm - N/A   Clear
2:56 AM 61.0 °F - 61.0 °F 100% 29.70 in 1.8 mi Calm Calm - N/A   Clear
3:05 AM 60.8 °F - 60.8 °F 100% 30.10 in 3.0 mi Calm Calm - N/A   Clear
3:56 AM 60.1 °F - 59.0 °F 96% 29.71 in 4.0 mi WSW 3.5 mph - N/A   Partly Cloudy
4:08 AM 60.8 °F - 60.8 °F 100% 30.11 in 2.5 mi WSW 3.5 mph - N/A   Clear
4:37 AM 57.2 °F - 57.2 °F 100% 30.12 in 1.0 mi Calm Calm - N/A   Mostly Cloudy
4:45 AM 59.0 °F - 57.2 °F 94% 30.12 in 2.0 mi Calm Calm - N/A   Mostly Cloudy
4:53 AM 59.0 °F - 59.0 °F 100% 30.12 in 3.0 mi Calm Calm - N/A   Overcast
4:56 AM 60.1 °F - 60.1 °F 100% 29.72 in 3.0 mi Calm Calm - N/A   Overcast
5:05 AM 60.8 °F - 60.8 °F 100% 30.12 in 2.5 mi Calm Calm - N/A   Overcast
5:30 AM 60.8 °F - 60.8 °F 100% 30.13 in 4.0 mi Calm Calm - N/A   Overcast
5:56 AM 61.0 °F - 61.0 °F 100% 29.73 in 3.0 mi Calm Calm - N/A   Overcast
6:28 AM 60.8 °F - 60.8 °F 100% 30.14 in 2.5 mi Calm Calm - N/A   Overcast
6:56 AM 62.1 °F - 62.1 °F 100% 29.74 in 3.0 mi Calm Calm - N/A   Overcast
7:12 AM 62.6 °F - 62.6 °F 100% - 2.5 mi Calm Calm - N/A   Overcast
7:31 AM 62.6 °F - 62.6 °F 100% 30.14 in 3.0 mi Calm Calm - N/A   Mostly Cloudy
7:56 AM 64.0 °F - 64.0 °F 100% 29.74 in 3.0 mi Calm Calm - N/A   Overcast
8:26 AM 66.2 °F - 64.4 °F 94% 30.14 in 4.0 mi Calm Calm - N/A   Overcast
8:56 AM 66.9 °F - 66.0 °F 97% 29.74 in 6.0 mi Calm Calm - N/A   Mostly Cloudy
9:56 AM 72.0 °F - 68.0 °F 87% 29.74 in 10.0 mi Calm Calm - N/A   Scattered Clouds
10:56 AM 78.1 °F - 69.1 °F 74% 29.73 in 10.0 mi West 3.5 mph - N/A   Scattered Clouds
11:25 AM 78.8 °F - 69.8 °F 74% 30.14 in 10.0 mi West 5.8 mph - N/A   Mostly Cloudy
11:47 AM 77.0 °F - 68.0 °F 74% 30.13 in 10.0 mi Variable 4.6 mph - N/A   Scattered Clouds
11:56 AM 78.1 °F - 70.0 °F 76% 29.73 in 6.0 mi West 5.8 mph - N/A   Haze
12:44 PM 78.8 °F - 68.0 °F 69% 30.11 in 10.0 mi WSW 3.5 mph - N/A   Scattered Clouds
12:56 PM 79.0 °F - 68.0 °F 69% 29.71 in 10.0 mi Variable 3.5 mph - N/A   Mostly Cloudy
1:19 PM 80.6 °F 83.2 °F 68.0 °F 65% 30.11 in 10.0 mi Variable 3.5 mph - N/A   Mostly Cloudy
1:56 PM 80.1 °F 82.3 °F 66.9 °F 64% 29.69 in 10.0 mi Calm Calm - N/A   Mostly Cloudy
2:56 PM 82.0 °F 84.9 °F 68.0 °F 62% 29.68 in 10.0 mi SW 4.6 mph - N/A   Partly Cloudy
3:56 PM 81.0 °F 84.1 °F 69.1 °F 67% 29.67 in 10.0 mi SW 3.5 mph - N/A   Overcast
4:56 PM 82.0 °F 85.5 °F 69.1 °F 65% 29.66 in 10.0 mi Variable 4.6 mph - N/A   Partly Cloudy
5:56 PM 81.0 °F 84.1 °F 69.1 °F 67% 29.65 in 10.0 mi Variable 3.5 mph - N/A   Clear
6:56 PM 78.1 °F - 69.1 °F 74% 29.65 in 10.0 mi Calm Calm - N/A   Clear
7:56 PM 73.9 °F - 69.1 °F 85% 29.64 in 9.0 mi Calm Calm - N/A   Clear
8:56 PM 71.1 °F - 68.0 °F 90% 29.64 in 10.0 mi Calm Calm - N/A   Clear
9:56 PM 70.0 °F - 66.9 °F 90% 29.63 in 10.0 mi SE 5.8 mph - N/A   Clear
10:56 PM 70.0 °F - 66.9 °F 90% 29.62 in 10.0 mi Calm Calm - N/A   Clear
11:56 PM 70.0 °F - 66.9 °F 90% 29.60 in 10.0 mi Variable 3.5 mph - N/A   Clear